TimeEDT,TemperatureF,Dew PointF,Humidity,Sea Level PressureIn,VisibilityMPH,Wind Direction,Wind SpeedMPH,Gust SpeedMPH,PrecipitationIn,Events,Conditions,WindDirDegrees,DateUTC
12:15 AM,50.0,46.4,87,30.08,10.0,Calm,Calm,-,N/A,,Overcast,0,2012-10-07 04:15:00
12:35 AM,50.0,46.4,87,30.08,10.0,Calm,Calm,-,N/A,,Overcast,0,2012-10-07 04:35:00
12:55 AM,50.0,46.4,87,30.08,10.0,Calm,Calm,-,N/A,,Overcast,0,2012-10-07 04:55:00
1:15 AM,50.0,46.4,87,30.07,10.0,Calm,Calm,-,N/A,,Overcast,0,2012-10-07 05:15:00
1:35 AM,50.0,46.4,87,30.08,10.0,West,3.5,-,N/A,,Overcast,260,2012-10-07 05:35:00
1:55 AM,50.0,46.4,87,30.08,10.0,Calm,Calm,-,N/A,,Overcast,0,2012-10-07 05:55:00
2:15 AM,50.0,44.6,82,30.08,10.0,Calm,Calm,-,N/A,,Overcast,0,2012-10-07 06:15:00
2:35 AM,50.0,44.6,82,30.07,10.0,Calm,Calm,-,N/A,,Overcast,0,2012-10-07 06:35:00
2:55 AM,50.0,44.6,82,30.08,10.0,Calm,Calm,-,N/A,,Overcast,0,2012-10-07 06:55:00
3:15 AM,50.0,44.6,82,30.07,10.0,Calm,Calm,-,N/A,,Overcast,0,2012-10-07 07:15:00
3:35 AM,50.0,44.6,82,30.07,10.0,Calm,Calm,-,N/A,,Overcast,0,2012-10-07 07:35:00
3:55 AM,50.0,44.6,82,30.07,10.0,Calm,Calm,-,N/A,Rain,Light Rain,0,2012-10-07 07:55:00
4:15 AM,50.0,46.4,87,30.07,10.0,Calm,Calm,-,N/A,Rain,Rain,0,2012-10-07 08:15:00
4:35 AM,48.2,46.4,93,30.06,7.0,Calm,Calm,-,N/A,Rain,Rain,0,2012-10-07 08:35:00
4:55 AM,48.2,46.4,93,30.07,10.0,NNW,3.5,-,0.01,Rain,Rain,330,2012-10-07 08:55:00
5:15 AM,48.2,46.4,93,30.07,10.0,ENE,3.5,-,0.05,Rain,Rain,60,2012-10-07 09:15:00
5:35 AM,46.4,46.4,100,30.09,10.0,Calm,Calm,-,0.09,Rain,Rain,0,2012-10-07 09:35:00
5:55 AM,46.4,46.4,100,30.07,10.0,East,5.8,-,0.14,Rain,Rain,90,2012-10-07 09:55:00
6:15 AM,46.4,46.4,100,30.10,7.0,NNW,5.8,-,0.06,Rain,Heavy Rain,330,2012-10-07 10:15:00
6:35 AM,46.4,46.4,100,30.09,10.0,Calm,Calm,-,0.10,Rain,Rain,0,2012-10-07 10:35:00
6:55 AM,46.4,46.4,100,30.10,10.0,Calm,Calm,-,0.11,Rain,Light Rain,0,2012-10-07 10:55:00
7:15 AM,46.4,46.4,100,30.09,5.0,East,3.5,-,0.04,Rain,Heavy Rain,80,2012-10-07 11:15:00
7:55 AM,44.6,44.6,100,30.08,10.0,Calm,Calm,-,0.07,,Light Drizzle,0,2012-10-07 11:55:00
8:15 AM,46.4,46.4,100,30.11,10.0,NNW,4.6,-,N/A,,Overcast,330,2012-10-07 12:15:00
8:35 AM,46.4,46.4,100,30.11,10.0,NE,3.5,-,N/A,,Overcast,50,2012-10-07 12:35:00
8:55 AM,46.4,46.4,100,30.11,10.0,ENE,3.5,-,N/A,,Overcast,70,2012-10-07 12:55:00
9:15 AM,46.4,46.4,100,30.12,10.0,East,3.5,-,N/A,,Overcast,80,2012-10-07 13:15:00
9:35 AM,46.4,46.4,100,30.12,10.0,ENE,3.5,-,N/A,,Overcast,70,2012-10-07 13:35:00
9:55 AM,46.4,46.4,100,30.12,10.0,East,5.8,-,N/A,,Overcast,100,2012-10-07 13:55:00
10:15 AM,46.4,46.4,100,30.11,7.0,East,6.9,-,N/A,,Overcast,90,2012-10-07 14:15:00
10:35 AM,46.4,46.4,100,30.12,2.5,East,5.8,-,N/A,,Overcast,90,2012-10-07 14:35:00
10:55 AM,46.4,46.4,100,30.11,2.5,ENE,5.8,-,N/A,,Heavy Drizzle,60,2012-10-07 14:55:00
11:15 AM,46.4,46.4,100,30.12,3.0,East,5.8,-,0.01,,Heavy Drizzle,90,2012-10-07 15:15:00
11:35 AM,46.4,46.4,100,30.12,2.5,NE,3.5,-,0.01,,Heavy Drizzle,50,2012-10-07 15:35:00
11:55 AM,46.4,46.4,100,30.11,2.0,ENE,5.8,-,0.02,,Drizzle,70,2012-10-07 15:55:00
12:15 PM,46.4,46.4,100,30.12,2.0,Calm,Calm,-,N/A,,Drizzle,0,2012-10-07 16:15:00
12:35 PM,46.4,46.4,100,30.10,2.0,East,4.6,-,0.01,,Heavy Drizzle,90,2012-10-07 16:35:00
12:55 PM,48.2,48.2,100,30.09,4.0,East,6.9,-,0.01,,Light Drizzle,100,2012-10-07 16:55:00
1:15 PM,46.4,46.4,100,30.09,7.0,ESE,4.6,-,N/A,,Overcast,110,2012-10-07 17:15:00
1:35 PM,46.4,46.4,100,30.09,10.0,East,3.5,-,0.01,Rain,Light Rain,80,2012-10-07 17:35:00
1:55 PM,46.4,46.4,100,30.07,10.0,ENE,3.5,-,0.03,Rain,Light Rain,70,2012-10-07 17:55:00
2:15 PM,46.4,46.4,100,30.08,5.0,Calm,Calm,-,N/A,Rain,Rain,0,2012-10-07 18:15:00
2:35 PM,48.2,48.2,100,30.08,5.0,North,3.5,-,0.01,Rain,Rain,350,2012-10-07 18:35:00
2:55 PM,48.2,48.2,100,30.10,7.0,NW,4.6,-,0.02,,Drizzle,310,2012-10-07 18:55:00
3:15 PM,48.2,48.2,100,30.10,3.0,Calm,Calm,-,N/A,,Heavy Drizzle,0,2012-10-07 19:15:00
3:35 PM,48.2,48.2,100,30.10,3.0,West,3.5,-,N/A,Rain,Rain,270,2012-10-07 19:35:00
3:55 PM,48.2,48.2,100,30.10,7.0,West,3.5,-,0.01,,Overcast,280,2012-10-07 19:55:00
4:15 PM,48.2,48.2,100,30.10,10.0,WNW,3.5,-,N/A,Rain,Rain,290,2012-10-07 20:15:00
4:35 PM,48.2,48.2,100,30.11,7.0,WNW,9.2,-,N/A,,Drizzle,300,2012-10-07 20:35:00
4:55 PM,48.2,48.2,100,30.12,7.0,WNW,6.9,-,0.01,Rain,Light Rain,290,2012-10-07 20:55:00
5:15 PM,48.2,48.2,100,30.12,10.0,WNW,8.1,-,0.01,Rain,Rain,290,2012-10-07 21:15:00
5:35 PM,48.2,48.2,100,30.11,10.0,WNW,4.6,-,0.01,,Overcast,290,2012-10-07 21:35:00
5:55 PM,48.2,46.4,93,30.13,10.0,West,5.8,-,0.01,,Overcast,280,2012-10-07 21:55:00
6:15 PM,46.4,46.4,100,30.13,10.0,WNW,5.8,-,N/A,,Overcast,290,2012-10-07 22:15:00
6:35 PM,46.4,46.4,100,30.13,10.0,West,3.5,-,N/A,,Scattered Clouds,280,2012-10-07 22:35:00
6:55 PM,46.4,44.6,93,30.13,10.0,Calm,Calm,-,N/A,,Clear,0,2012-10-07 22:55:00
7:15 PM,44.6,44.6,100,30.14,10.0,Calm,Calm,-,N/A,,Clear,0,2012-10-07 23:15:00
7:35 PM,44.6,44.6,100,30.15,10.0,Calm,Calm,-,N/A,,Clear,0,2012-10-07 23:35:00
7:55 PM,42.8,42.8,100,30.15,10.0,South,3.5,-,N/A,,Clear,180,2012-10-07 23:55:00
8:15 PM,42.8,42.8,100,30.16,10.0,Calm,Calm,-,N/A,,Clear,0,2012-10-08 00:15:00
8:35 PM,42.8,42.8,100,30.16,10.0,Calm,Calm,-,N/A,,Clear,0,2012-10-08 00:35:00
8:55 PM,39.2,39.2,100,30.17,7.0,Calm,Calm,-,N/A,,Clear,0,2012-10-08 00:55:00
9:15 PM,39.2,39.2,100,30.17,3.0,Calm,Calm,-,N/A,,Clear,0,2012-10-08 01:15:00
9:35 PM,39.2,39.2,100,30.19,4.0,WSW,3.5,-,N/A,,Clear,250,2012-10-08 01:35:00
9:55 PM,39.2,39.2,100,30.18,7.0,Calm,Calm,-,N/A,,Clear,0,2012-10-08 01:55:00
10:15 PM,39.2,39.2,100,30.19,10.0,Calm,Calm,-,N/A,,Clear,0,2012-10-08 02:15:00
10:35 PM,39.2,39.2,100,30.19,7.0,Calm,Calm,-,N/A,,Clear,0,2012-10-08 02:35:00
10:55 PM,39.2,39.2,100,30.19,5.0,Calm,Calm,-,N/A,,Clear,0,2012-10-08 02:55:00
11:15 PM,39.2,39.2,100,30.20,5.0,Calm,Calm,-,N/A,,Clear,0,2012-10-08 03:15:00
11:35 PM,39.2,39.2,100,30.20,7.0,Calm,Calm,-,N/A,,Clear,0,2012-10-08 03:35:00
11:55 PM,39.2,39.2,100,30.20,7.0,Calm,Calm,-,N/A,,Clear,0,2012-10-08 03:55:00